Flag for Poland Weather past 2 weeks in Radom, Poland

Now
45 °F

Overcast.


Feels Like: 42 °F
Forecast: 34 / 58 °F
Wind: 5 mph from North

Location: Kielce


UV Index: 3 (Moderate)

Visibility: 22 mi


Pressure: 30.30 "Hg

Humidity: 70%

Dew point: 36 °F

Location of RadomLocation

Historic Weather in Radom

°F

Radom temperature yesterday

Maximum temperature yesterday: 44 °F (at 5:00 PM)
Minimum temperature yesterday: 38 °F (at 6:00 AM)
Average temperature yesterday: 41 °F

Past Weeks' High & Low Weather Summary

 TemperatureHumidityPressure
High70 °F (Apr 8, 3:00 PM)100% (Apr 6, 11:00 AM)30.30 "Hg (Apr 6, 11:00 AM)
Low26 °F (Apr 2, 6:00 AM)32% (Apr 2, 6:00 PM)29.64 "Hg (Apr 3, 5:00 PM)
Average45 °F77%29.99 "Hg
* Reported Apr 1 3:00 PM — Apr 16 3:00 PM, Radom, Weather by CustomWeather, © 2014

Note: Actual official high and low records may vary slightly from our data, if they occured in-between our weather recording intervals... More about our weather records

Advertising

Historic Weather Conditions — Data for Previous 24 hours

 ConditionsComfort  
Time TempWeatherWind HumidityBarometerVisibility
3:00 PM
Apr 16
43 °FOvercast.5 mph84%30.30 "Hg16 mi
2:00 PM42 °FOvercast.5 mph84%30.29 "Hg19 mi
1:00 PM41 °FOvercast.5 mph89%30.29 "Hg11 mi
12:00 PM40 °FSprinkles. Low clouds.5 mph92%30.28 "Hg8 mi
11:00 AM40 °FLow clouds.5 mph91%30.26 "Hg11 mi
10:00 AM40 °FLow clouds.7 mph93%30.25 "Hg9 mi
9:00 AM39 °FLow clouds.7 mph94%30.23 "Hg9 mi
8:00 AM38 °FLow clouds.6 mph96%30.21 "Hg6 mi
7:00 AM39 °FLow clouds.6 mph93%30.18 "Hg9 mi
6:00 AM40 °FLow clouds.3 mph95%30.16 "Hg12 mi
5:00 AM40 °FOvercast.5 mph95%30.13 "Hg17 mi
4:00 AM40 °FOvercast.5 mph95%30.11 "Hg16 mi
3:00 AM39 °FOvercast.3 mph98%30.09 "Hg7 mi
2:00 AM38 °FFog.2 mph99%30.09 "Hg4 mi
11:00 PM
Apr 15
39 °FPassing clouds.3 mph96%30.04 "Hg6 mi
10:00 PM40 °FOvercast.3 mph94%30.03 "Hg6 mi
9:00 PM41 °FSprinkles. Overcast.2 mph93%30.01 "Hg12 mi
8:00 PM41 °FSprinkles. Overcast.1 mph96%29.99 "Hg6 mi
7:00 PM43 °FOvercast.1 mph91%29.96 "Hg11 mi
6:00 PM43 °FOvercast.2 mph92%29.95 "Hg9 mi
5:00 PM44 °FOvercast.2 mph83%29.93 "Hg13 mi
4:00 PM42 °FOvercast.3 mph85%29.93 "Hg19 mi
Weather by CustomWeather, © 2014

See weather overview